This is the latest recevied weather packets stored in our database for station/object KI4NG. If no packets are shown the sender has not sent any weather packets the latest 10 day(s).
| Time | Temp. | Humidity | Pressure | Rain* | Wind** | Luminosity | Snow |
|---|---|---|---|---|---|---|---|
| 1788012504 | 25.56° C | 75% | 1023.3 hPa | 0 mm | - | 421 W/m² | - |
| 1788012203 | 25.56° C | 77% | 1023 hPa | 0 mm | - | 424 W/m² | - |
| 1788011903 | 25.56° C | 77% | 1023.1 hPa | 0 mm | - | 359 W/m² | - |
| 1788011601 | 25.56° C | 79% | 1022.8 hPa | 0 mm | - | 86 W/m² | - |
| 1788011298 | 25° C | 78% | 1022.9 hPa | 0 mm | - | 324 W/m² | - |
| 1788010996 | 25° C | 80% | 1022.9 hPa | 0 mm | - | 74 W/m² | - |
| 1788010692 | 25° C | 77% | 1022.9 hPa | 0 mm | - | 72 W/m² | - |
| 1788010390 | 24.44° C | 83% | 1022.9 hPa | 0 mm | - | 268 W/m² | - |
| 1788010084 | 23.89° C | 81% | 1022.8 hPa | 0 mm | - | 268 W/m² | - |
| 1788009780 | 23.33° C | 83% | 1022.8 hPa | 0 mm | - | 69 W/m² | - |
| 1788009478 | 22.78° C | 84% | 1022.8 hPa | 0 mm | - | 66 W/m² | - |
| 1788009172 | 22.22° C | 86% | 1022.7 hPa | 0 mm | - | 206 W/m² | - |
| 1788008867 | 21.67° C | 88% | 1022.9 hPa | 0 mm | - | 206 W/m² | - |
| 1788008562 | 22.78° C | 88% | 1022.7 hPa | 0 mm | - | 193 W/m² | - |
| 1788008260 | 22.78° C | 85% | 1022.9 hPa | 0 mm | - | 183 W/m² | - |
| 1788007958 | 22.22° C | 88% | 1023 hPa | 0 mm | - | 88 W/m² | - |
| 1788007657 | 21.11° C | 92% | 1022.9 hPa | 0 mm | - | 81 W/m² | - |
| 1788007353 | 20.56° C | 92% | 1022.7 hPa | 0 mm | - | 70 W/m² | - |
| 1788007047 | 20° C | 99% | 1022.8 hPa | 0 mm | - | 63 W/m² | - |
| 1788006746 | 18.89° C | 99% | 1022.4 hPa | 0 mm | - | 57 W/m² | - |
| 1788006440 | 18.33° C | 99% | 1022.4 hPa | 0 mm | - | 48 W/m² | - |
| 1788006135 | 17.78° C | 99% | 1022.5 hPa | 0 mm | - | 42 W/m² | - |
| 1788005834 | 17.78° C | 99% | 1022.5 hPa | 0 mm | - | 40 W/m² | - |
| 1788005529 | 17.78° C | 99% | 1022.4 hPa | 0 mm | - | 38 W/m² | - |
| 1788005228 | 17.22° C | 99% | 1022.7 hPa | 0 mm | - | 36 W/m² | - |
* Rain latest hour (hover to see other rain measurements)
** Current wind speed in m/s (hover to see current wind gust speed)